Change the Weather History Date:

Saturday, April 28, 2012

  Actual Average Record
Temperature  
Mean Temperature 32 °F -  
Max Temperature 37 °F 49 °F 46 °F (2011)
Min Temperature 28 °F 22 °F 28 °F (2011)
Degree Days  
Heating Degree Days 32    
Moisture  
Dew Point 28 °F    
Average Humidity 85    
Maximum Humidity 87    
Minimum Humidity 80    
Precipitation  
Precipitation 0.00 in - - ()
Sea Level Pressure  
Sea Level Pressure 30.05 in    
Wind  
Wind Speed 6 mph (WSW)    
Max Wind Speed 10 mph    
Max Gust Speed 18 mph    
Visibility 10 miles    
Events      
Averages and records for this station are not official NWS values.
T = Trace of Precipitation, MM = Missing Value Source: NWS Daily Summary

Daily Weather History Graph

Daily Weather History Graph

Search for Another Location

Airport or City:

Trip Planner

Search our weather history database for the weather conditions in past years. The results will help you decide how hot, cold, wet, or windy it might be!

Date:

Astronomy

Apr. 28, 2012 Rise Set
Actual Time 6:18 AM MDT 8:26 PM MDT
Civil Twilight 5:46 AM MDT 8:58 PM MDT
Nautical Twilight 5:07 AM MDT 9:37 PM MDT
Astronomical Twilight 4:23 AM MDT 10:21 PM MDT
Moon 12:00 PM MDT (4/28) 1:54 AM MDT (4/28)
Length of Visible Light 15h 12m
Length of Day
14h 08m
Waxing Crescent, 43% of the Moon is Illuminated
Apr 28
Waxing Crescent
Apr 29
First Quarter
May 5
Full
May 12
Last Quarter
May 20
New

Hourly Weather History & Observations

Time (MDT) Temp. Windchill Dew Point Humidity Pressure Visibility Wind Dir Wind Speed Gust Speed Precip Events Conditions
12:05 AM 30.2 °F 25.4 °F 26.6 °F 86% 30.04 in 10.0 mi WSW 4.6 mph - N/A   Overcast
12:25 AM 30.2 °F 24.3 °F 26.6 °F 86% 30.04 in 10.0 mi WSW 5.8 mph - N/A   Overcast
12:45 AM 30.2 °F 22.6 °F 26.6 °F 86% 30.04 in 10.0 mi WSW 8.1 mph - N/A   Overcast
1:05 AM 30.2 °F 23.4 °F 26.6 °F 86% 30.04 in 10.0 mi WSW 6.9 mph - N/A   Overcast
1:25 AM 30.2 °F 24.3 °F 26.6 °F 86% 30.05 in 10.0 mi West 5.8 mph - N/A   Overcast
1:45 AM 30.2 °F 24.3 °F 26.6 °F 86% 30.04 in 10.0 mi WSW 5.8 mph - N/A   Overcast
2:05 AM 28.4 °F 20.4 °F 24.8 °F 86% 30.04 in 10.0 mi SW 8.1 mph - N/A   Overcast
2:25 AM 28.4 °F 22.2 °F 24.8 °F 86% 30.04 in 10.0 mi WSW 5.8 mph - N/A   Overcast
2:45 AM 28.4 °F 23.3 °F 24.8 °F 86% 30.04 in 10.0 mi WSW 4.6 mph - N/A   Overcast
3:05 AM 28.4 °F 23.3 °F 24.8 °F 86% 30.04 in 10.0 mi WSW 4.6 mph - N/A   Overcast
3:25 AM 28.4 °F 20.4 °F 24.8 °F 86% 30.03 in 10.0 mi WSW 8.1 mph - N/A   Overcast
3:45 AM 28.4 °F 22.2 °F 24.8 °F 86% 30.04 in 10.0 mi WSW 5.8 mph - N/A   Overcast
4:05 AM 28.4 °F 21.2 °F 24.8 °F 86% 30.04 in 10.0 mi WSW 6.9 mph - N/A   Overcast
4:25 AM 28.4 °F 20.4 °F 24.8 °F 86% 30.04 in 10.0 mi WSW 8.1 mph - N/A   Overcast
4:45 AM 28.4 °F 19.7 °F 24.8 °F 86% 30.05 in 10.0 mi WSW 9.2 mph - N/A   Overcast
5:05 AM 28.4 °F 21.2 °F 24.8 °F 86% 30.05 in 10.0 mi WSW 6.9 mph - N/A   Overcast
5:25 AM 28.4 °F 20.4 °F 24.8 °F 86% 30.05 in 10.0 mi WSW 8.1 mph - N/A   Overcast
5:45 AM 28.4 °F 22.2 °F 24.8 °F 86% 30.05 in 10.0 mi WSW 5.8 mph - N/A   Overcast
6:25 AM 28.4 °F 23.3 °F 24.8 °F 86% 30.05 in 10.0 mi WSW 4.6 mph - N/A   Overcast
6:45 AM 28.4 °F 23.3 °F 24.8 °F 86% 30.06 in 10.0 mi West 4.6 mph - N/A   Overcast
7:05 AM 28.4 °F 24.6 °F 24.8 °F 86% 30.06 in 10.0 mi WSW 3.5 mph - N/A   Overcast
7:25 AM 28.4 °F 22.2 °F 24.8 °F 86% 30.07 in 10.0 mi South 5.8 mph - N/A   Overcast
7:45 AM 28.4 °F 22.2 °F 24.8 °F 86% 30.07 in 10.0 mi SW 5.8 mph - N/A   Overcast
8:25 AM 28.4 °F 22.2 °F 24.8 °F 86% 30.07 in 10.0 mi SW 5.8 mph - N/A   Overcast
8:45 AM 28.4 °F 21.2 °F 24.8 °F 86% 30.07 in 10.0 mi SW 6.9 mph - N/A   Mostly Cloudy
9:05 AM 28.4 °F 20.4 °F 24.8 °F 86% 30.07 in 10.0 mi WSW 8.1 mph - N/A   Partly Cloudy
9:25 AM 30.2 °F 23.4 °F 26.6 °F 86% 30.07 in 10.0 mi WSW 6.9 mph - N/A   Partly Cloudy
9:45 AM 32.0 °F 24.8 °F 26.6 °F 80% 30.07 in 10.0 mi SW 8.1 mph - N/A   Partly Cloudy
10:05 AM 30.2 °F 21.9 °F 26.6 °F 86% 30.07 in 10.0 mi WSW 9.2 mph - N/A   Partly Cloudy
10:45 AM 32.0 °F 25.6 °F 26.6 °F 80% 30.07 in 10.0 mi South 6.9 mph - N/A   Scattered Clouds
11:05 AM 32.0 °F 27.5 °F 26.6 °F 80% 30.07 in 7.0 mi WNW 4.6 mph - N/A   Mostly Cloudy
11:25 AM 32.0 °F 24.8 °F 26.6 °F 80% 30.07 in 7.0 mi SSW 8.1 mph - N/A   Mostly Cloudy
11:45 AM 32.0 °F 23.6 °F 26.6 °F 80% 30.07 in 5.0 mi SSW 10.4 mph - N/A   Mostly Cloudy
12:05 PM 32.0 °F 28.7 °F 28.4 °F 87% 30.07 in 9.0 mi West 3.5 mph - N/A   Scattered Clouds
12:25 PM 32.0 °F 27.5 °F 28.4 °F 87% 30.07 in 10.0 mi SW 4.6 mph - N/A   Mostly Cloudy
12:45 PM 33.8 °F 30.8 °F 30.2 °F 87% 30.06 in 10.0 mi NNW 3.5 mph - N/A   Mostly Cloudy
1:05 PM 35.6 °F 28.0 °F 32.0 °F 87% 30.06 in 10.0 mi SW 10.4 mph - N/A   Mostly Cloudy
1:25 PM 35.6 °F 28.6 °F 32.0 °F 87% 30.06 in 10.0 mi WSW 9.2 mph - N/A   Overcast
1:45 PM 35.6 °F 30.7 °F 32.0 °F 87% 30.06 in 10.0 mi West 5.8 mph - N/A   Mostly Cloudy
2:05 PM 35.6 °F 29.9 °F 32.0 °F 87% 30.06 in 10.0 mi WSW 6.9 mph - N/A   Mostly Cloudy
2:25 PM 37.4 °F 30.8 °F 32.0 °F 81% 30.06 in 10.0 mi WNW 9.2 mph - N/A   Overcast
2:45 PM 37.4 °F 32.8 °F 32.0 °F 81% 30.05 in 10.0 mi WSW 5.8 mph - N/A   Overcast
3:05 PM 37.4 °F 32.1 °F 32.0 °F 81% 30.05 in 10.0 mi West 6.9 mph - N/A   Mostly Cloudy
3:25 PM 37.4 °F 30.3 °F 33.8 °F 87% 30.04 in 10.0 mi WSW 10.4 mph 16.1 mph N/A   Overcast
3:45 PM 37.4 °F 30.8 °F 33.8 °F 87% 30.03 in 10.0 mi WSW 9.2 mph 18.4 mph N/A   Overcast
4:05 PM 37.4 °F 31.4 °F 32.0 °F 81% 30.03 in 10.0 mi WSW 8.1 mph - N/A   Overcast
4:25 PM 37.4 °F 31.4 °F 33.8 °F 87% 30.03 in 10.0 mi West 8.1 mph - N/A   Mostly Cloudy
4:45 PM 37.4 °F 32.1 °F 32.0 °F 81% 30.03 in 10.0 mi WSW 6.9 mph - N/A   Mostly Cloudy
5:05 PM 37.4 °F 33.8 °F 32.0 °F 81% 30.03 in 10.0 mi NNE 4.6 mph - N/A   Overcast
5:25 PM 37.4 °F 33.8 °F 32.0 °F 81% 30.03 in 10.0 mi NNW 4.6 mph - N/A   Overcast
5:45 PM 37.4 °F 32.8 °F 32.0 °F 81% 30.04 in 10.0 mi NW 5.8 mph - N/A   Overcast
6:05 PM 35.6 °F 30.7 °F 32.0 °F 87% 30.05 in 10.0 mi North 5.8 mph - N/A   Mostly Cloudy
6:25 PM 35.6 °F - 32.0 °F 87% 30.05 in 10.0 mi Calm Calm - N/A   Mostly Cloudy
6:45 PM 35.6 °F 30.7 °F 32.0 °F 87% 30.05 in 10.0 mi WSW 5.8 mph - N/A   Partly Cloudy
7:05 PM 35.6 °F 30.7 °F 32.0 °F 87% 30.05 in 10.0 mi WSW 5.8 mph - N/A   Mostly Cloudy
7:25 PM 35.6 °F 32.8 °F 32.0 °F 87% 30.04 in 10.0 mi West 3.5 mph - N/A   Overcast
7:45 PM 33.8 °F 26.4 °F 30.2 °F 87% 30.05 in 10.0 mi SW 9.2 mph - N/A   Mostly Cloudy
8:05 PM 33.8 °F 29.6 °F 30.2 °F 87% 30.04 in 10.0 mi SW 4.6 mph - N/A   Mostly Cloudy
8:25 PM 32.0 °F 27.5 °F 28.4 °F 87% 30.05 in 10.0 mi SW 4.6 mph - N/A   Overcast
8:45 PM 32.0 °F 27.5 °F 28.4 °F 87% 30.05 in 10.0 mi SW 4.6 mph - N/A   Overcast
9:05 PM 32.0 °F - 28.4 °F 87% 30.05 in 10.0 mi Calm Calm - N/A   Overcast
9:25 PM 32.0 °F - 28.4 °F 87% 30.05 in 10.0 mi Calm Calm - N/A   Overcast
9:45 PM 32.0 °F - 28.4 °F 87% 30.05 in 10.0 mi Calm Calm - N/A   Overcast
10:05 PM 32.0 °F - 28.4 °F 87% 30.05 in 10.0 mi Calm Calm - N/A   Overcast
10:25 PM 32.0 °F - 28.4 °F 87% 30.05 in 10.0 mi Calm Calm - N/A   Overcast
10:45 PM 32.0 °F - 26.6 °F 80% 30.05 in 10.0 mi Calm Calm - N/A   Overcast
11:05 PM 32.0 °F - 26.6 °F 80% 30.04 in 10.0 mi Calm Calm - N/A   Overcast
11:25 PM 30.2 °F 26.7 °F 26.6 °F 86% 30.04 in 10.0 mi West 3.5 mph - N/A   Overcast
11:45 PM 30.2 °F 26.7 °F 26.6 °F 86% 30.03 in 10.0 mi SW 3.5 mph - N/A   Overcast